Location: Arlington
(40.6323°N, 74.1651°W)
Time: 07:53:42
(UTC+00:00)

APEX - Pass Details

Date: 22 November 2019
Orbit: 333 x 1122 km, 69.9° (Epoch: 14 December)

Event Time Altitude Azimuth Distance (km) Brightness Sun altitude
Rises 22:23:06 0° 215° (SW) 2,556 7.7 -9.4°
Reaches altitude 10° 22:25:28 10° 221° (SW) 1,565 6.7 -9.9°
Maximum altitude 22:28:43 45° 296° (WNW) 547 3.7 -10.4°
Drops below altitude 10° 22:31:31 10° 12° (NNE) 1,351 5.0 -10.9°
Enters shadow 22:32:19 - 15° (NNE) 1,681 5.5 -11.1°
